Temperature
16 16 16 16 16 16 16 16 15 15 15 15 16 16 15 15 15 16 16 16 15 15 15 15 15 15 15 15 15 15 15 15 15 15 15 15 15 15
16 16 15 15 15 16 16 15 15 15 15 15 15 15 15 15 15 15 15 15 15 15 15 15 15 15 15 15 15 15 15 15 15 15 15 15 15 15
15 15 15 15 15 15 15 15 15 15 15 15 15 15 15 15 15 15 15 15 15 15 15 15 15 15 14 14 14 14 15 15 14 15 14 14 14 14
15 15 15 15 15 15 15 15 15 15 14 14 14 14 14 14 14 14 14 14 14 14 15 15 15 14 14 14 14 14 14 14 14 14 14 14 14 14
15 15 15 15 15 15 15 15 14 14 14 14 14 14 14 14 14 14 14 14 14 14 14 14 14 14 14 14 14 14 14 14 14 14 14 14 14 14
15 15 15 15 15 14 14 14 14 14 14 14 14 14 14 14 13 14 14 14 14 14 14 14 14 14 14 14 14 14 14 14 14 14 14 14 14 14
15 15 14 14 14 14 14 14 14 14 14 13 13 13 13 13 13 13 13 13 13 13 13 14 14 14 14 14 14 14 14 14 14 14 14 14 14 14
14 14 14 14 14 14 14 14 13 13 13 13 13 13 13 13 13 13 13 13 13 13 13 13 13 13 13 13 13 13 13 14 14 14 14 13 13 13
14 14 14 14 14 14 14 14 13 13 13 13 13 13 13 13 13 13 13 13 13 13 13 13 13 13 13 13 13 13 13 13 13 13 14 13 13 13
14 14 14 14 14 13 13 13 13 13 13 13 13 13 13 13 13 13 13 13 13 13 13 13 13 13 13 13 13 13 13 13 13 13 13 13 13 13
14 14 14 14 13 13 13 13 13 13 13 13 13 13 13 13 12 12 12 12 12 13 13 12 13 13 13 13 13 13 13 13 13 13 13 13 13 13
13 13 13 13 13 13 13 13 13 13 13 13 13 12 13 13 12 12 12 12 12 12 13 12 13 12 12 13 13 13 13 13 13 13 13 13 13 13
13 13 13 13 13 12 12 12 12 12 12 12 12 12 12 12 12 12 12 12 12 12 12 12 12 12 12 12 12 12 13 13 13 13 13 13 13 13
13 13 13 12 12 12 12 12 12 12 12 12 12 12 12 12 12 12 12 12 12 12 12 12 12 12 12 12 12 12 12 12 12 12 12 12 12 12
13 12 12 12 12 12 12 12 12 12 12 12 12 12 12 12 12 12 12 12 12 12 12 12 12 12 12 12 12 12 12 12 12 12 12 12 12 12
12 12 12 12 12 12 12 12 12 12 11 11 11 11 11 11 11 11 12 12 12 12 12 12 12 12 12 12 11 11 11 11 12 12 12 11 11 11
12 12 12 12 12 12 12 12 12 12 11 11 11 11 11 11 11 11 11 11 11 11 11 11 11 11 11 11 11 11 11 11 11 11 11 11 11 11
12 12 12 12 12 12 12 12 12 11 11 11 11 11 11 11 11 11 11 11 11 11 11 11 11 11 11 11 11 11 11 11 11 11 11 11 11 11
12 12 12 11 11 11 11 11 11 11 11 11 11 11 11 11 11 11 11 11 11 11 11 11 11 10 10 10 11 11 11 11 11 11 11 11 11 11
12 11 11 11 11 11 11 11 11 11 11 11 11 11 10 10 10 10 10 10 10 10 10 10 10 10 10 10 10 11 11 10 10 11 11 11 11 11
11 11 11 11 11 11 11 11 11 11 11 10 10 10 10 10 10 10 10 10 10 10 10 10 10 10 10 10 10 10 10 10 10 10 10 10 10 10
11 11 11 11 11 11 11 11 11 11 10 10 10 10 10 10 10 10 10 10 10 10 10 10 10 10 10 10 10 10 10 10 10 10 10 10 10 10
11 11 11 11 11 11 11 11 11 11 10 10 10 10 10 10 10 10 10 10 10 10 10 10 10 10 10 10 10 10 10 10 10 10 10 10 10 10
Wind_Speed
2 2 2 2 2 2 3 3 3 3 3 3 2 2 2 2 3 3 4 5 6 7 8 8 8 7 7 7 7 7 6 6 6 6 6 7 8 7
2 1 1 2 2 2 3 3 3 3 3 3 3 3 3 2 2 2 3 4 5 6 7 7 7 7 6 7 7 6 7 7 7 7 7 7 8 8
2 2 3 2 2 2 2 2 2 3 4 3 2 3 2 2 2 2 2 2 3 6 7 8 8 8 7 6 6 6 7 7 7 7 8 8 8 9
3 3 4 3 3 2 2 3 3 3 3 4 3 2 2 2 2 2 2 2 3 4 6 7 7 8 8 8 7 7 8 9 9 8 8 8 9 9
4 4 4 3 3 2 3 3 3 3 3 3 3 2 2 1 1 1 2 2 2 3 4 6 7 8 9 9 9 10 10 10 10 10 9 9 9 10
4 4 4 4 4 4 3 3 2 2 2 2 2 2 2 1 1 1 2 2 2 2 2 3 5 7 9 10 10 10 10 11 11 11 11 11 11 11
3 3 4 4 5 4 3 3 3 2 2 2 2 2 2 2 2 2 3 2 3 2 2 2 2 3 4 7 9 9 10 10 11 11 11 11 11 12
4 4 4 3 4 4 4 4 4 4 3 3 3 4 4 4 3 3 2 2 3 2 2 3 2 3 3 4 6 9 10 10 11 11 12 12 12 12
4 4 3 3 3 2 3 3 3 4 5 5 5 5 5 4 3 3 4 4 4 2 2 3 2 4 4 5 7 8 9 10 10 11 12 12 13 13
4 4 4 3 3 2 2 2 3 4 5 4 5 6 6 5 6 5 4 4 3 3 3 3 3 4 4 4 6 7 7 8 9 10 11 11 12 12
4 4 4 4 4 3 2 3 3 4 4 5 5 6 6 7 6 3 3 3 4 3 4 3 3 3 3 4 5 6 7 7 8 8 9 10 11 11
3 3 4 4 4 3 3 3 4 5 3 3 3 3 4 5 7 7 6 5 4 3 4 4 3 2 2 2 3 4 5 6 7 8 8 9 9 7
3 3 3 4 4 4 4 4 6 5 3 3 3 3 3 3 4 5 6 6 6 5 4 4 3 3 2 2 2 2 3 3 4 5 7 8 9 8
4 4 4 4 5 5 4 5 5 3 2 2 2 3 3 3 4 4 5 7 7 7 6 6 3 4 3 3 3 2 2 3 3 3 4 5 7 8
4 5 5 5 5 4 5 4 3 2 2 2 3 4 4 4 3 3 3 3 4 5 6 6 5 4 4 4 3 2 2 2 3 3 3 4 4 4
3 3 3 3 3 3 3 3 3 3 4 4 4 3 2 2 2 2 2 2 2 2 3 4 5 6 4 4 4 4 3 3 2 3 3 3 4 5
2 2 2 2 2 2 2 2 3 3 3 3 3 2 2 2 2 2 2 2 2 3 2 1 2 4 4 4 4 5 4 4 4 3 3 4 4 5
3 3 4 4 4 4 4 3 3 3 3 3 3 3 3 3 3 2 2 2 3 3 3 2 1 1 2 3 6 6 5 4 4 4 4 4 5 5
3 4 5 5 5 4 4 4 4 4 3 4 4 4 3 3 3 3 2 3 3 4 3 3 3 3 4 5 3 6 5 4 4 4 4 5 6 5
4 5 5 5 5 5 5 4 4 3 3 4 4 4 4 4 3 4 3 4 4 4 4 3 4 5 5 5 4 3 6 5 4 5 5 4 4 4
5 5 5 5 5 5 5 5 4 4 4 4 4 5 4 4 4 4 4 4 4 4 5 5 5 5 4 2 3 4 4 6 7 5 5 4 4 4
5 5 5 5 5 5 5 5 5 4 5 5 5 5 4 5 5 6 5 5 5 5 6 5 3 3 3 5 6 6 5 4 4 6 8 7 5 5
6 5 5 5 5 5 5 5 6 5 5 5 5 5 5 5 5 5 5 5 5 5 4 4 3 3 4 5 5 5 6 5 3 3 4 7 10 10
Wind_Direction
227 229 232 234 209 206 198 193 195 250 271 257 257 263 259 257 260 250 239 230 215 211 209 209 207 204 205 208 212 215 215 215 219 223 222 221 222 222
228 223 238 242 225 208 205 206 206 213 250 247 248 273 271 272 272 248 244 233 219 209 211 210 206 205 208 212 214 216 216 216 220 224 225 222 219 215
239 224 242 244 236 224 206 205 212 209 241 266 262 280 269 272 296 280 266 247 237 220 214 209 203 200 200 201 211 218 220 218 219 222 224 223 221 217
237 233 243 241 238 232 211 215 220 219 224 255 271 271 261 269 277 285 280 265 250 233 217 209 205 203 203 209 213 220 222 222 218 217 221 226 225 220
225 228 237 230 244 241 225 223 226 232 227 234 266 271 266 266 282 288 284 294 277 260 225 217 213 214 216 219 220 222 223 222 220 217 220 224 227 224
235 234 237 228 232 234 234 228 222 228 225 228 256 269 267 266 230 258 280 282 283 284 256 226 219 223 226 226 227 228 225 223 220 219 219 220 223 221
254 249 245 235 229 228 237 224 211 217 215 223 248 264 267 250 240 232 248 276 276 267 251 242 232 233 238 236 234 234 230 227 223 221 220 220 222 221
251 256 252 247 244 242 246 236 211 207 213 219 239 247 259 250 244 237 234 249 265 248 227 254 235 243 249 247 241 235 232 232 229 225 223 222 221 219
239 243 250 254 248 239 250 252 242 229 213 212 227 241 239 231 221 235 232 233 245 237 214 257 251 250 253 256 247 238 234 231 231 228 224 222 220 220
244 229 231 251 243 223 227 249 260 255 242 231 232 240 238 228 218 224 232 242 257 242 210 240 253 252 256 252 248 241 239 234 232 229 224 221 219 218
254 235 224 230 230 215 223 251 270 276 263 249 250 249 243 233 213 204 215 223 249 247 209 216 243 251 256 253 249 237 233 229 226 225 223 221 218 216
261 247 228 226 227 217 219 228 249 265 275 287 282 275 257 236 214 210 214 222 232 241 213 201 222 222 254 249 245 239 233 228 223 223 221 218 210 207
258 262 255 239 237 238 227 228 239 250 258 261 270 276 272 254 233 223 217 217 223 234 213 194 214 214 232 255 260 248 236 232 221 222 221 220 210 201
246 253 258 254 248 249 244 238 234 233 236 245 255 261 262 262 260 250 236 228 230 236 221 204 213 212 219 242 254 250 237 225 217 217 221 211 210 210
247 250 259 262 260 254 244 237 217 212 217 228 245 252 256 261 267 265 260 246 241 243 227 217 216 218 220 234 243 246 250 246 224 221 219 214 211 203
257 269 274 265 252 249 251 242 225 216 216 228 244 257 262 262 265 262 254 253 243 258 244 223 214 211 220 230 233 242 237 232 228 225 223 228 225 217
236 266 280 282 267 258 254 250 234 213 221 233 237 254 260 259 270 271 252 242 236 245 262 257 234 225 227 223 233 237 236 240 237 225 222 238 239 228
197 238 251 253 251 252 249 253 250 236 233 235 234 232 238 248 264 274 256 239 242 243 250 252 239 232 239 243 226 235 238 242 240 221 218 234 245 235
212 235 242 247 249 248 246 245 247 244 233 228 231 234 236 241 245 249 251 250 252 251 252 242 225 222 243 259 248 215 227 243 239 232 227 229 241 241
228 233 239 243 244 241 240 241 244 241 233 233 232 232 229 229 234 238 239 249 252 252 249 240 225 223 232 248 257 257 226 233 237 239 240 239 247 251
233 238 240 240 240 240 239 236 235 236 237 237 238 232 227 227 232 237 238 240 244 248 245 247 242 227 229 222 244 256 251 228 224 233 233 234 242 239
235 237 239 237 233 235 236 234 236 240 241 239 243 240 233 230 234 237 236 236 238 244 251 256 248 213 216 228 246 258 264 263 241 233 230 226 224 228
241 241 240 238 234 232 234 235 237 243 241 239 238 237 235 233 234 236 239 239 239 245 253 253 247 233 237 240 250 260 260 258 258 256 254 243 230 239
Height
1527 1527 1527 1528 1528 1528 1528 1528 1528 1527 1525 1525 1526 1526 1526 1525 1525 1525 1525 1525 1525 1526 1527 1527 1528 1529 1531 1532 1533 1534 1535 1536 1537 1538 1540 1541 1542 1544
1524 1525 1524 1525 1525 1525 1525 1525 1525 1525 1523 1522 1522 1523 1522 1522 1522 1522 1522 1522 1523 1523 1524 1524 1525 1526 1527 1528 1530 1530 1532 1533 1534 1535 1537 1538 1540 1541
1522 1522 1522 1522 1522 1522 1522 1522 1522 1522 1520 1519 1519 1519 1519 1519 1519 1519 1519 1520 1520 1520 1521 1522 1522 1523 1524 1525 1526 1527 1528 1530 1531 1532 1534 1535 1537 1538
1519 1519 1519 1519 1519 1519 1519 1519 1519 1518 1518 1516 1515 1515 1515 1516 1516 1516 1517 1517 1517 1517 1518 1518 1519 1520 1521 1522 1523 1524 1525 1526 1527 1529 1530 1531 1533 1534
1515 1515 1515 1516 1516 1516 1516 1515 1515 1515 1514 1513 1512 1512 1512 1513 1513 1514 1514 1514 1514 1514 1514 1515 1516 1517 1518 1519 1520 1520 1522 1523 1524 1525 1526 1527 1529 1530
1512 1512 1512 1512 1512 1512 1512 1512 1511 1511 1511 1510 1510 1509 1510 1510 1510 1510 1511 1511 1511 1511 1511 1512 1512 1513 1514 1515 1516 1517 1518 1519 1520 1521 1522 1523 1525 1526
1508 1508 1509 1509 1509 1509 1509 1508 1508 1508 1507 1507 1506 1506 1506 1506 1507 1507 1507 1508 1508 1508 1508 1508 1509 1510 1511 1512 1512 1513 1514 1515 1516 1517 1518 1519 1520 1522
1505 1505 1505 1505 1505 1505 1505 1505 1505 1504 1503 1503 1503 1503 1503 1503 1504 1504 1504 1504 1504 1505 1505 1505 1506 1506 1507 1508 1508 1509 1510 1511 1512 1513 1514 1515 1516 1518
1501 1501 1502 1502 1502 1502 1501 1501 1501 1501 1501 1500 1500 1499 1500 1500 1500 1500 1501 1501 1501 1502 1502 1501 1502 1502 1503 1504 1504 1505 1506 1506 1507 1508 1509 1511 1512 1514
1498 1498 1498 1498 1498 1498 1498 1498 1497 1497 1497 1497 1497 1497 1497 1497 1497 1498 1497 1498 1498 1499 1499 1498 1498 1499 1499 1500 1500 1501 1502 1502 1503 1504 1505 1506 1508 1509
1494 1494 1494 1494 1494 1494 1495 1494 1494 1494 1494 1494 1493 1493 1493 1494 1494 1494 1494 1494 1493 1494 1495 1495 1495 1495 1495 1496 1497 1497 1498 1498 1499 1500 1501 1502 1504 1505
1491 1490 1491 1491 1491 1491 1491 1491 1490 1490 1490 1490 1490 1490 1490 1490 1490 1490 1490 1490 1490 1490 1491 1492 1491 1492 1492 1492 1493 1493 1494 1494 1495 1496 1497 1498 1499 1500
1487 1487 1487 1487 1487 1487 1487 1487 1487 1487 1486 1486 1486 1486 1486 1486 1486 1486 1486 1486 1486 1486 1488 1488 1488 1488 1489 1489 1489 1490 1490 1491 1491 1492 1493 1494 1495 1496
1484 1484 1484 1484 1484 1484 1484 1483 1483 1483 1483 1482 1482 1482 1482 1482 1482 1482 1482 1482 1483 1483 1484 1484 1484 1484 1485 1485 1486 1486 1487 1487 1487 1488 1489 1490 1491 1492
1481 1481 1481 1480 1480 1480 1480 1480 1480 1480 1479 1479 1478 1478 1479 1479 1479 1479 1479 1479 1479 1479 1480 1480 1481 1481 1482 1482 1482 1482 1483 1483 1484 1484 1485 1485 1486 1487
1478 1477 1477 1477 1477 1477 1477 1476 1476 1476 1476 1475 1475 1475 1475 1475 1475 1475 1475 1475 1475 1476 1476 1477 1477 1478 1478 1478 1479 1479 1479 1479 1480 1481 1481 1482 1482 1483
1475 1474 1473 1473 1473 1473 1473 1473 1473 1473 1472 1472 1472 1472 1472 1472 1472 1472 1472 1472 1471 1471 1472 1473 1474 1474 1474 1475 1475 1475 1475 1475 1476 1477 1477 1477 1478 1479
1471 1470 1469 1469 1469 1469 1469 1469 1469 1469 1469 1468 1468 1468 1468 1468 1468 1468 1468 1468 1468 1468 1468 1469 1469 1470 1470 1470 1471 1471 1471 1471 1472 1472 1473 1472 1473 1474
1466 1466 1465 1465 1465 1465 1465 1465 1465 1465 1465 1465 1464 1465 1464 1464 1464 1464 1464 1464 1464 1464 1465 1465 1466 1466 1466 1466 1466 1467 1467 1467 1468 1468 1468 1468 1468 1469
1462 1462 1461 1461 1461 1461 1461 1461 1461 1461 1461 1461 1460 1460 1461 1460 1461 1461 1461 1461 1461 1461 1461 1461 1462 1462 1462 1463 1462 1463 1463 1463 1464 1463 1463 1463 1464 1465
1458 1457 1457 1457 1457 1457 1457 1457 1457 1457 1457 1457 1456 1456 1456 1456 1456 1456 1457 1457 1457 1457 1457 1457 1458 1459 1459 1459 1459 1458 1459 1459 1459 1459 1459 1459 1459 1459
1454 1453 1453 1453 1453 1453 1453 1453 1453 1453 1453 1453 1452 1452 1452 1452 1452 1452 1452 1453 1453 1453 1453 1454 1455 1455 1455 1454 1454 1454 1454 1454 1454 1454 1454 1454 1454 1454
1449 1449 1449 1449 1449 1449 1449 1449 1448 1448 1448 1448 1447 1447 1447 1447 1447 1447 1448 1448 1449 1449 1449 1449 1450 1450 1450 1450 1450 1449 1449 1449 1449 1449 1449 1449 1450 1450